Vertical_Velocity
-3 1 0 0 -0 -1 0 1 1 1 1 1 1 1 -0 0 1 1 0 -1 -0 -1 -1 -0 -1 -2 -1 -2 -2 -1 -1 0 0 1 -3 -1 -1 -2 1 -0 -3 -2 -3
-0 -0 1 1 0 -0 -1 0 2 1 0 0 -1 -0 1 0 3 2 2 1 1 1 1 1 -0 -2 -0 1 1 2 2 1 -0 -1 -0 -2 -1 1 0 -0 -0 -2 -3
1 2 0 -0 0 0 -0 -0 1 1 -1 0 0 -0 -0 0 -1 1 0 1 1 2 2 2 1 1 1 0 0 -0 -1 -0 -2 -1 -1 1 1 -1 -0 2 -3 -4 -1
-0 2 1 1 -1 -0 -0 0 0 0 1 1 0 1 -1 -1 -1 -1 -1 -1 -0 -0 -0 0 1 0 1 0 0 -1 -1 1 -1 -0 1 0 1 2 -0 -2 -2 -2 -1
1 0 1 1 -0 -1 0 0 1 0 0 -0 -1 0 1 0 -0 -1 -1 -0 -1 -0 -1 -2 -0 -1 -0 -0 -0 -1 -0 -0 -0 0 2 2 -0 0 -2 -1 -1 -2 -4
-1 -0 2 1 0 -0 -0 1 0 1 1 0 -0 -0 1 1 -0 -0 1 1 1 -0 0 -1 2 1 -0 3 2 1 1 1 1 -0 1 -1 -2 -2 -0 -1 -1 -1 -1
-0 0 1 2 0 0 -1 1 2 1 0 1 0 0 1 1 1 -0 -2 -0 -1 -2 1 -0 1 0 -1 -0 1 0 -1 -1 -2 -1 -1 -0 -0 -0 -1 -2 -3 -3 -2
0 -0 0 1 0 -0 0 1 2 1 1 1 0 0 0 1 1 1 -1 1 -0 0 0 -0 -0 0 1 -1 1 1 0 -2 -1 -2 -1 -1 -1 -2 -1 -2 -2 -2 -0
1 0 1 0 1 0 1 -0 0 0 -0 -1 -1 -1 -1 0 0 1 -1 -1 0 0 0 0 -0 -0 -0 -0 0 0 0 1 -0 -2 -2 -1 -2 -2 -2 -2 -2 -1 -0
-0 -0 1 -1 1 1 0 -0 0 1 1 1 1 1 0 1 1 1 0 -0 0 -1 -0 -0 0 -0 1 -0 1 -0 1 1 -1 -2 -1 -4 -2 -2 -2 -2 -2 -1 -1
0 2 -0 0 -1 0 1 1 0 2 2 2 1 1 -1 0 -0 1 -1 1 1 -1 0 1 0 0 -1 -1 -0 -1 -1 -2 -3 -2 -1 -1 0 -0 -3 -3 -2 -1 -0
3 1 -1 -1 -0 1 1 1 2 2 2 2 2 0 -0 0 -0 0 -1 0 -1 -1 0 -0 0 -0 -1 -1 -1 -2 -1 -1 -1 -0 -2 -2 -0 -0 -1 -4 -2 -1 1
3 -1 1 1 1 -0 0 1 1 2 1 1 1 0 -0 -0 -0 -0 -0 0 -1 -0 -0 -0 0 0 0 -0 -1 -2 -0 -1 -1 -1 -3 -2 -3 -1 -1 -1 -1 -1 -1
9 0 2 2 1 1 -1 -0 -0 0 0 1 0 1 -0 -1 0 0 1 1 -2 0 1 -0 -0 -1 1 0 -1 -1 -0 -2 -0 -3 -1 -2 -0 -1 -2 0 -1 -1 -2
7 2 -1 2 3 1 1 1 0 1 1 1 -1 -0 0 2 0 -0 -1 -0 -0 -0 -1 0 -0 -1 -0 -0 -1 -1 -1 -0 0 -2 -2 -1 -2 -2 -1 -3 -0 -1 -1
1 -1 3 2 -0 2 0 0 -0 0 1 1 -1 -1 1 -2 -1 -0 -1 -0 -1 -1 -1 -1 -0 -1 -1 -1 -0 -0 -1 -1 -1 -1 -2 -0 -0 -3 -3 -1 -0 -1 -0
-18 -2 -2 -1 -1 -1 1 0 -1 0 0 -0 -0 -1 -1 0 1 -3 -1 0 -1 -1 -2 -1 -1 -1 -1 -1 1 -1 -0 -1 -2 -1 -2 -1 -1 -3 -1 -1 -2 -2 -2
-11 12 3 2 1 -2 1 -1 -1 -0 1 2 1 -1 -1 -0 0 1 -1 -0 -1 0 -0 -0 -1 -2 -2 -2 -1 -1 -1 -1 -2 -2 -2 -1 -2 -2 -1 -1 -1 -1 -0
19 83 1 -0 3 -0 -1 -2 0 -0 -0 1 1 -1 -2 -0 -0 -1 0 -1 -1 -1 -0 0 -2 -0 -2 -2 -1 -1 -2 -1 -2 -2 -2 -1 -2 -2 -1 -1 -1 -2 -1
5 47 35 1 -1 1 -1 -2 0 2 3 -0 1 -2 -1 1 1 0 -0 -2 -1 -1 -0 -1 -1 -1 -1 -1 -2 -1 -2 -1 -1 -1 -2 -1 -1 -2 -1 -1 -2 -1 -1
-8 13 1 20 -2 1 2 4 3 4 -0 0 -0 -0 -0 -1 0 -2 0 -2 -3 -1 -0 -1 -1 -1 -1 -2 -2 -1 -1 -2 -1 -1 -1 -2 -1 -2 -1 -1 -2 -1 -1
-4 9 27 30 11 0 0 0 -1 -5 -2 -4 -2 -1 -1 -1 -2 -0 0 -2 -3 -1 -2 -2 -1 -1 -1 -2 -2 -2 -2 -1 -1 -1 -1 -1 -2 -3 -1 -3 -3 -2 -1
-9 1 4 5 5 7 -1 2 -1 -5 -6 1 5 3 -2 0 -0 -0 0 -2 -1 -1 -1 -2 -2 -0 -1 -1 -1 -1 -2 -1 -1 -1 -1 -1 -2 -2 -0 1 -2 -2 -0
2 -3 -6 2 -6 -3 4 -3 3 4 -1 8 -2 -4 -0 0 -2 1 -1 -0 -1 -1 -1 -1 -3 -2 -0 -0 -2 -2 -2 -1 -1 -1 0 -1 -1 1 -1 -2 -2 -6 -4
-4 3 -3 -3 -5 -0 -3 -1 2 2 -2 -2 -4 -4 1 1 -3 -1 1 1 -1 -0 -0 -2 -1 -1 -2 -0 -0 -1 -3 -2 -2 -1 -0 1 1 -0 -1 -3 -2 -1 -2
-7 -6 -4 -4 -4 -1 -2 1 5 4 1 -2 1 3 5 2 0 -2 2 0 2 -1 -1 -1 -0 -2 -1 -1 -1 -2 -0 -1 -2 -2 -2 -2 -1 0 -1 -0 -1 0 -2
Height
5858 5861 5862 5863 5864 5864 5866 5868 5870 5873 5874 5876 5877 5879 5880 5882 5884 5885 5887 5887 5888 5888 5889 5890 5891 5892 5892 5892 5892 5893 5892 5893 5893 5892 5891 5889 5887 5885 5885 5885 5884 5882 5881
5855 5857 5859 5861 5862 5863 5864 5866 5868 5871 5873 5874 5876 5877 5879 5881 5882 5884 5885 5886 5888 5889 5890 5890 5891 5891 5891 5892 5892 5893 5893 5892 5892 5891 5890 5888 5887 5887 5885 5883 5882 5881 5877
5850 5853 5855 5857 5859 5861 5862 5863 5866 5869 5871 5872 5874 5876 5878 5880 5882 5883 5884 5885 5886 5887 5888 5889 5890 5891 5892 5892 5892 5892 5892 5892 5891 5891 5890 5888 5887 5885 5882 5881 5879 5876 5873
5846 5848 5850 5853 5855 5858 5860 5861 5864 5867 5869 5871 5872 5874 5876 5878 5880 5881 5882 5884 5885 5886 5888 5888 5890 5891 5891 5891 5892 5892 5892 5891 5891 5890 5889 5888 5886 5883 5880 5879 5876 5874 5871
5841 5844 5846 5849 5852 5854 5856 5859 5861 5864 5867 5869 5871 5873 5874 5876 5878 5880 5881 5883 5885 5886 5887 5888 5890 5891 5891 5891 5891 5892 5891 5891 5890 5890 5888 5886 5883 5881 5879 5877 5875 5871 5867
5835 5838 5842 5844 5847 5850 5852 5856 5859 5862 5864 5866 5869 5871 5873 5875 5877 5878 5880 5882 5883 5885 5886 5888 5889 5890 5890 5891 5891 5891 5891 5890 5889 5888 5886 5884 5881 5879 5877 5875 5872 5867 5863
5829 5834 5837 5840 5842 5845 5848 5852 5855 5859 5861 5864 5866 5869 5870 5872 5874 5877 5878 5880 5882 5883 5885 5886 5888 5888 5889 5889 5889 5889 5889 5888 5887 5886 5884 5882 5879 5878 5876 5872 5868 5864 5860
5824 5828 5832 5835 5838 5841 5844 5848 5852 5855 5858 5861 5864 5866 5867 5869 5872 5874 5876 5878 5880 5881 5883 5885 5885 5886 5887 5887 5887 5887 5887 5886 5885 5884 5883 5881 5878 5877 5874 5870 5866 5862 5857
5817 5822 5827 5831 5834 5837 5840 5844 5848 5852 5855 5858 5861 5863 5865 5867 5869 5871 5874 5876 5878 5879 5881 5883 5883 5884 5884 5885 5885 5885 5884 5884 5883 5882 5881 5879 5877 5875 5872 5868 5864 5860 5854
5810 5816 5821 5826 5829 5832 5836 5840 5844 5848 5851 5855 5857 5860 5862 5864 5867 5869 5871 5874 5876 5877 5879 5880 5881 5882 5882 5882 5882 5882 5882 5882 5881 5880 5879 5877 5876 5873 5870 5866 5862 5857 5853
5801 5809 5815 5820 5824 5827 5831 5835 5839 5844 5847 5850 5854 5856 5859 5861 5863 5866 5869 5871 5873 5875 5876 5877 5879 5879 5879 5880 5880 5880 5879 5879 5879 5878 5877 5875 5874 5871 5868 5864 5860 5855 5851
5797 5802 5808 5814 5819 5822 5827 5830 5835 5839 5843 5846 5850 5853 5856 5858 5861 5863 5866 5869 5871 5872 5874 5875 5876 5877 5877 5877 5877 5877 5878 5877 5876 5875 5874 5873 5871 5869 5866 5862 5858 5853 5848
5790 5795 5800 5806 5812 5816 5821 5825 5830 5834 5838 5842 5845 5849 5852 5855 5858 5860 5863 5866 5868 5870 5871 5872 5873 5874 5874 5874 5874 5874 5874 5874 5873 5872 5871 5870 5869 5867 5864 5861 5856 5851 5846
5780 5786 5793 5799 5804 5809 5815 5820 5825 5829 5833 5837 5841 5845 5848 5851 5854 5857 5860 5862 5865 5867 5868 5869 5870 5870 5870 5871 5871 5871 5871 5871 5870 5869 5868 5868 5867 5864 5861 5858 5854 5849 5844
5770 5776 5784 5791 5797 5802 5807 5813 5819 5824 5828 5832 5837 5841 5844 5848 5851 5854 5857 5859 5861 5863 5864 5865 5865 5865 5866 5866 5867 5867 5867 5867 5866 5866 5865 5865 5864 5862 5859 5855 5851 5847 5843
5759 5769 5776 5783 5790 5795 5801 5806 5812 5818 5823 5827 5831 5836 5840 5844 5848 5851 5854 5856 5857 5859 5860 5860 5860 5861 5861 5861 5862 5863 5863 5863 5863 5862 5862 5862 5861 5859 5856 5853 5849 5845 5841
5749 5762 5769 5776 5782 5789 5795 5800 5806 5812 5817 5822 5827 5831 5835 5839 5843 5847 5849 5851 5853 5854 5855 5856 5856 5856 5857 5857 5858 5859 5859 5859 5859 5858 5858 5858 5857 5855 5853 5850 5847 5843 5838
5741 5752 5761 5766 5774 5782 5788 5794 5799 5805 5810 5816 5821 5826 5830 5834 5838 5842 5844 5846 5848 5849 5851 5852 5852 5852 5853 5853 5854 5854 5855 5855 5855 5855 5855 5854 5854 5852 5850 5848 5845 5841 5837
5736 5739 5753 5762 5768 5773 5780 5786 5792 5798 5804 5809 5815 5820 5824 5828 5832 5836 5839 5841 5843 5845 5846 5848 5848 5848 5848 5849 5850 5850 5851 5851 5852 5851 5851 5851 5850 5849 5847 5845 5842 5839 5835
5725 5729 5744 5751 5758 5765 5770 5776 5784 5791 5798 5804 5809 5814 5818 5823 5827 5830 5833 5836 5838 5840 5841 5843 5843 5844 5844 5845 5846 5846 5847 5847 5848 5847 5847 5847 5846 5845 5843 5841 5839 5836 5833
5720 5726 5732 5742 5751 5757 5765 5771 5778 5786 5792 5797 5802 5807 5811 5817 5821 5825 5827 5831 5833 5835 5836 5837 5838 5839 5840 5841 5842 5842 5843 5843 5843 5843 5843 5842 5842 5841 5839 5838 5835 5833 5830
5711 5717 5719 5732 5743 5750 5757 5763 5769 5776 5783 5788 5792 5799 5805 5811 5814 5818 5821 5825 5828 5830 5831 5833 5834 5835 5835 5836 5837 5837 5838 5839 5838 5838 5838 5837 5837 5835 5834 5832 5831 5829 5826
5708 5714 5718 5724 5732 5741 5749 5757 5762 5766 5773 5780 5789 5796 5801 5803 5806 5811 5815 5818 5821 5824 5825 5827 5829 5830 5831 5832 5832 5833 5833 5834 5834 5834 5833 5832 5831 5831 5830 5828 5825 5823 5822
5700 5706 5713 5719 5727 5732 5740 5747 5756 5761 5767 5777 5781 5785 5789 5794 5800 5805 5808 5811 5814 5817 5819 5821 5823 5825 5825 5826 5827 5828 5828 5828 5829 5829 5829 5828 5826 5824 5824 5823 5821 5819 5817
5689 5698 5705 5711 5718 5725 5730 5738 5747 5753 5758 5765 5771 5776 5781 5787 5794 5798 5801 5804 5807 5810 5812 5814 5816 5817 5819 5820 5821 5822 5822 5823 5823 5823 5822 5822 5821 5820 5818 5817 5815 5814 5813
5678 5688 5695 5703 5708 5716 5719 5725 5735 5745 5750 5755 5763 5769 5775 5781 5786 5790 5793 5796 5800 5803 5805 5807 5809 5810 5811 5812 5814 5815 5815 5815 5816 5816 5815 5815 5814 5813 5812 5810 5808 5808 5806